Location: Acheville
(50.3840°N, 2.8827°E)
Time: 08:36:15
(UTC+00:00)

Cosmos 1300 - Pass Details

Date: 24 October 2021
Orbit: 509 x 512 km, 82.5° (Epoch: 30 November)

Event Time Altitude Azimuth Distance (km) Brightness Sun altitude
Rises 17:53:46 0° 184° (S) 2,614 6.4 -12.6°
Reaches altitude 10° 17:55:53 10° 183° (S) 1,733 5.4 -12.9°
Maximum altitude 17:59:40 75° 98° (E) 538 2.6 -13.5°
Drops below altitude 10° 18:03:29 10° 13° (NNE) 1,747 5.2 -14.1°
Sets 18:05:38 0° 12° (NNE) 2,638 6.2 -14.5°
